QPF
0.04 0.05 0.07 0.08 0.09 0.08 0.07 0.06 0.06 0.06 0.05 0.04 0.03 0.01 0.01 0.02 0.02 0.02 0.03 0.02 0.01 0.00 0.00 0.01 0.01 0.02 0.02 0.02 0.02 0.03 0.04 0.04 0.04 0.05 0.05 0.05 0.05 0.06
0.05 0.07 0.08 0.09 0.09 0.08 0.06 0.04 0.05 0.05 0.05 0.04 0.04 0.02 0.02 0.01 0.02 0.02 0.02 0.03 0.02 0.01 0.01 0.01 0.01 0.01 0.01 0.01 0.01 0.02 0.02 0.03 0.03 0.04 0.04 0.05 0.06 0.07
0.05 0.05 0.04 0.05 0.05 0.06 0.06 0.05 0.04 0.04 0.04 0.04 0.04 0.03 0.03 0.03 0.03 0.03 0.03 0.03 0.03 0.02 0.02 0.02 0.01 0.01 0.01 0.01 0.01 0.02 0.02 0.02 0.03 0.03 0.04 0.04 0.04 0.07
0.03 0.03 0.04 0.05 0.04 0.05 0.05 0.04 0.04 0.04 0.04 0.05 0.05 0.05 0.05 0.04 0.03 0.03 0.03 0.03 0.03 0.03 0.03 0.03 0.03 0.03 0.03 0.04 0.04 0.04 0.04 0.04 0.03 0.02 0.02 0.03 0.04 0.05
0.04 0.04 0.04 0.04 0.04 0.04 0.04 0.05 0.04 0.04 0.03 0.03 0.04 0.05 0.07 0.07 0.04 0.04 0.03 0.04 0.03 0.03 0.03 0.02 0.02 0.02 0.03 0.03 0.04 0.05 0.05 0.06 0.05 0.04 0.03 0.03 0.03 0.04
0.04 0.05 0.06 0.05 0.04 0.04 0.04 0.04 0.04 0.03 0.03 0.02 0.03 0.04 0.06 0.08 0.10 0.08 0.06 0.05 0.05 0.04 0.04 0.04 0.04 0.03 0.03 0.02 0.02 0.02 0.03 0.04 0.04 0.04 0.04 0.04 0.04 0.03
0.04 0.07 0.06 0.05 0.05 0.05 0.04 0.04 0.04 0.04 0.03 0.03 0.03 0.04 0.03 0.04 0.06 0.08 0.08 0.07 0.06 0.04 0.04 0.04 0.04 0.04 0.03 0.03 0.02 0.02 0.03 0.04 0.04 0.05 0.05 0.04 0.04 0.04
0.05 0.07 0.07 0.06 0.06 0.06 0.05 0.05 0.04 0.04 0.04 0.03 0.03 0.03 0.03 0.03 0.03 0.04 0.04 0.06 0.06 0.05 0.05 0.05 0.05 0.05 0.04 0.03 0.03 0.02 0.02 0.02 0.03 0.04 0.04 0.04 0.04 0.05
0.05 0.05 0.06 0.06 0.06 0.06 0.05 0.04 0.03 0.03 0.03 0.03 0.03 0.02 0.03 0.03 0.02 0.03 0.04 0.06 0.06 0.06 0.05 0.05 0.05 0.04 0.03 0.02 0.02 0.01 0.01 0.02 0.03 0.03 0.03 0.03 0.03 0.04
0.05 0.05 0.04 0.03 0.03 0.04 0.03 0.02 0.02 0.02 0.01 0.01 0.02 0.02 0.02 0.02 0.03 0.03 0.04 0.05 0.06 0.05 0.05 0.05 0.04 0.04 0.02 0.03 0.01 0.02 0.02 0.02 0.02 0.03 0.03 0.03 0.03 0.03
0.03 0.03 0.03 0.02 0.02 0.02 0.02 0.02 0.02 0.02 0.01 0.01 0.01 0.02 0.02 0.02 0.02 0.03 0.04 0.04 0.05 0.05 0.04 0.04 0.04 0.05 0.04 0.04 0.02 0.01 0.01 0.01 0.01 0.02 0.03 0.04 0.05 0.04
0.02 0.02 0.02 0.02 0.02 0.02 0.02 0.02 0.02 0.02 0.02 0.01 0.01 0.01 0.01 0.01 0.01 0.02 0.03 0.05 0.06 0.06 0.06 0.05 0.06 0.07 0.07 0.06 0.05 0.03 0.02 0.02 0.02 0.02 0.02 0.03 0.06 0.06
0.02 0.02 0.02 0.02 0.01 0.01 0.01 0.01 0.01 0.01 0.01 0.01 0.01 0.01 0.02 0.02 0.02 0.02 0.04 0.05 0.06 0.07 0.07 0.08 0.09 0.11 0.11 0.08 0.05 0.04 0.03 0.03 0.03 0.03 0.02 0.03 0.04 0.07
0.01 0.01 0.01 0.01 0.01 0.00 0.00 0.00 0.00 0.00 0.00 0.01 0.01 0.01 0.01 0.02 0.02 0.02 0.03 0.04 0.06 0.07 0.08 0.10 0.12 0.11 0.10 0.10 0.08 0.06 0.04 0.03 0.03 0.05 0.04 0.03 0.05 0.07
0.01 0.01 0.01 0.00 0.00 0.00 0.00 0.00 0.00 0.01 0.01 0.01 0.01 0.01 0.01 0.02 0.02 0.02 0.02 0.03 0.04 0.04 0.06 0.08 0.08 0.08 0.07 0.08 0.09 0.07 0.05 0.05 0.04 0.05 0.05 0.04 0.05 0.07
0.01 0.01 0.01 0.00 0.00 0.00 0.00 0.00 0.00 0.00 0.01 0.01 0.02 0.02 0.02 0.02 0.02 0.03 0.04 0.05 0.06 0.06 0.07 0.06 0.05 0.06 0.06 0.06 0.06 0.06 0.06 0.07 0.06 0.06 0.06 0.07 0.07 0.07
0.01 0.01 0.01 0.01 0.01 0.00 0.00 0.00 0.00 0.00 0.01 0.01 0.01 0.01 0.02 0.02 0.03 0.03 0.03 0.05 0.06 0.06 0.05 0.04 0.04 0.05 0.05 0.05 0.06 0.07 0.07 0.07 0.07 0.07 0.07 0.07 0.08 0.09
0.00 0.01 0.01 0.01 0.01 0.01 0.00 0.00 0.00 0.01 0.01 0.01 0.01 0.02 0.02 0.03 0.03 0.03 0.04 0.06 0.07 0.05 0.03 0.03 0.03 0.04 0.04 0.05 0.05 0.07 0.08 0.07 0.07 0.07 0.06 0.07 0.08 0.08
0.01 0.01 0.01 0.00 0.00 0.00 0.00 0.00 0.01 0.00 0.00 0.01 0.02 0.02 0.02 0.03 0.04 0.04 0.04 0.05 0.05 0.03 0.03 0.03 0.03 0.04 0.03 0.04 0.04 0.05 0.07 0.07 0.07 0.07 0.07 0.06 0.07 0.08
0.01 0.01 0.01 0.01 0.01 0.01 0.01 0.01 0.01 0.01 0.01 0.01 0.02 0.03 0.03 0.03 0.03 0.03 0.03 0.03 0.03 0.03 0.03 0.03 0.03 0.03 0.03 0.03 0.04 0.05 0.05 0.06 0.06 0.07 0.06 0.06 0.06 0.07
0.01 0.01 0.01 0.01 0.01 0.01 0.01 0.01 0.02 0.01 0.01 0.01 0.02 0.03 0.03 0.03 0.03 0.03 0.03 0.02 0.03 0.03 0.03 0.04 0.03 0.02 0.02 0.03 0.03 0.04 0.03 0.04 0.05 0.06 0.06 0.06 0.06 0.06
0.01 0.02 0.02 0.02 0.01 0.01 0.01 0.02 0.02 0.02 0.01 0.01 0.02 0.03 0.04 0.03 0.04 0.03 0.03 0.03 0.03 0.03 0.03 0.03 0.03 0.03 0.03 0.02 0.03 0.03 0.02 0.02 0.02 0.04 0.05 0.06 0.06 0.05
0.01 0.01 0.02 0.02 0.01 0.02 0.02 0.02 0.02 0.02 0.01 0.01 0.02 0.04 0.04 0.03 0.03 0.03 0.02 0.03 0.03 0.03 0.02 0.02 0.02 0.03 0.02 0.02 0.02 0.03 0.03 0.03 0.03 0.03 0.03 0.04 0.04 0.04
MSLP
1013.50 1013.42 1013.32 1013.21 1013.07 1012.89 1012.68 1012.42 1012.13 1011.80 1011.46 1011.13 1010.81 1010.53 1010.28 1010.08 1009.92 1009.79 1009.67 1009.55 1009.42 1009.28 1009.13 1008.98 1008.83 1008.70 1008.60 1008.53 1008.49 1008.48 1008.49 1008.53 1008.58 1008.64 1008.70 1008.78 1008.86 1008.95
1013.95 1013.85 1013.74 1013.61 1013.44 1013.23 1012.99 1012.70 1012.37 1012.01 1011.63 1011.26 1010.90 1010.57 1010.27 1010.00 1009.76 1009.53 1009.31 1009.09 1008.87 1008.65 1008.44 1008.24 1008.07 1007.93 1007.84 1007.80 1007.79 1007.82 1007.87 1007.93 1007.99 1008.05 1008.11 1008.17 1008.22 1008.28
1014.39 1014.29 1014.16 1014.02 1013.83 1013.60 1013.33 1013.01 1012.65 1012.27 1011.86 1011.46 1011.06 1010.69 1010.33 1009.99 1009.66 1009.33 1009.00 1008.66 1008.33 1008.00 1007.69 1007.41 1007.19 1007.04 1006.95 1006.93 1006.96 1007.03 1007.13 1007.23 1007.33 1007.42 1007.49 1007.55 1007.61 1007.65
1014.83 1014.71 1014.57 1014.40 1014.20 1013.95 1013.66 1013.31 1012.93 1012.52 1012.10 1011.67 1011.24 1010.83 1010.42 1010.02 1009.61 1009.19 1008.75 1008.29 1007.83 1007.38 1006.96 1006.60 1006.31 1006.11 1006.00 1005.99 1006.05 1006.16 1006.31 1006.46 1006.61 1006.74 1006.84 1006.93 1007.00 1007.05
1015.24 1015.10 1014.94 1014.75 1014.53 1014.26 1013.94 1013.57 1013.17 1012.73 1012.29 1011.84 1011.39 1010.95 1010.51 1010.06 1009.59 1009.09 1008.56 1008.00 1007.43 1006.86 1006.34 1005.87 1005.50 1005.24 1005.10 1005.08 1005.14 1005.28 1005.47 1005.66 1005.86 1006.03 1006.17 1006.29 1006.39 1006.47
1015.63 1015.45 1015.26 1015.04 1014.79 1014.49 1014.14 1013.75 1013.32 1012.86 1012.39 1011.93 1011.47 1011.02 1010.56 1010.09 1009.59 1009.04 1008.45 1007.81 1007.15 1006.49 1005.87 1005.31 1004.86 1004.53 1004.34 1004.28 1004.34 1004.48 1004.68 1004.90 1005.12 1005.32 1005.49 1005.64 1005.77 1005.89
1015.98 1015.75 1015.52 1015.27 1014.98 1014.65 1014.26 1013.83 1013.37 1012.89 1012.40 1011.92 1011.46 1011.01 1010.55 1010.08 1009.58 1009.02 1008.39 1007.72 1007.00 1006.27 1005.57 1004.94 1004.42 1004.02 1003.77 1003.67 1003.69 1003.81 1004.00 1004.21 1004.43 1004.63 1004.82 1004.98 1005.13 1005.29
1016.27 1016.00 1015.73 1015.43 1015.11 1014.73 1014.30 1013.84 1013.34 1012.83 1012.32 1011.83 1011.37 1010.93 1010.49 1010.03 1009.54 1008.99 1008.37 1007.69 1006.95 1006.18 1005.44 1004.76 1004.18 1003.73 1003.42 1003.26 1003.24 1003.31 1003.45 1003.63 1003.81 1003.99 1004.15 1004.31 1004.46 1004.64
1016.51 1016.19 1015.87 1015.54 1015.17 1014.75 1014.28 1013.77 1013.24 1012.71 1012.18 1011.69 1011.23 1010.80 1010.38 1009.95 1009.49 1008.96 1008.36 1007.68 1006.94 1006.18 1005.41 1004.71 1004.09 1003.60 1003.25 1003.04 1002.96 1002.98 1003.06 1003.17 1003.29 1003.40 1003.51 1003.62 1003.75 1003.91
1016.68 1016.33 1015.97 1015.59 1015.18 1014.72 1014.22 1013.68 1013.13 1012.57 1012.04 1011.54 1011.09 1010.67 1010.27 1009.86 1009.41 1008.91 1008.33 1007.67 1006.95 1006.19 1005.43 1004.72 1004.09 1003.58 1003.20 1002.96 1002.83 1002.78 1002.79 1002.82 1002.85 1002.88 1002.90 1002.93 1002.99 1003.11
1016.81 1016.42 1016.02 1015.61 1015.16 1014.67 1014.14 1013.59 1013.02 1012.46 1011.92 1011.43 1010.98 1010.57 1010.17 1009.77 1009.34 1008.84 1008.27 1007.62 1006.91 1006.16 1005.42 1004.72 1004.10 1003.59 1003.20 1002.94 1002.77 1002.67 1002.61 1002.56 1002.50 1002.42 1002.33 1002.25 1002.22 1002.28
1016.91 1016.49 1016.05 1015.60 1015.12 1014.60 1014.06 1013.50 1012.93 1012.38 1011.85 1011.37 1010.93 1010.52 1010.12 1009.71 1009.26 1008.75 1008.17 1007.51 1006.80 1006.06 1005.34 1004.66 1004.06 1003.57 1003.19 1002.92 1002.73 1002.60 1002.48 1002.36 1002.20 1002.02 1001.82 1001.63 1001.50 1001.46
1017.01 1016.54 1016.06 1015.57 1015.05 1014.52 1013.97 1013.41 1012.86 1012.33 1011.82 1011.36 1010.92 1010.51 1010.10 1009.67 1009.19 1008.64 1008.03 1007.35 1006.62 1005.88 1005.17 1004.51 1003.93 1003.47 1003.11 1002.86 1002.68 1002.53 1002.38 1002.20 1001.98 1001.71 1001.41 1001.12 1000.88 1000.74
1017.11 1016.59 1016.06 1015.51 1014.96 1014.40 1013.85 1013.30 1012.78 1012.27 1011.80 1011.36 1010.94 1010.52 1010.09 1009.63 1009.11 1008.52 1007.86 1007.14 1006.39 1005.64 1004.92 1004.27 1003.73 1003.30 1002.98 1002.75 1002.59 1002.45 1002.29 1002.09 1001.82 1001.50 1001.13 1000.76 1000.44 1000.21
1017.22 1016.63 1016.03 1015.43 1014.83 1014.25 1013.69 1013.16 1012.66 1012.19 1011.75 1011.34 1010.93 1010.52 1010.07 1009.57 1009.01 1008.37 1007.66 1006.90 1006.12 1005.35 1004.63 1004.00 1003.48 1003.08 1002.80 1002.61 1002.47 1002.36 1002.21 1002.02 1001.74 1001.40 1001.00 1000.59 1000.22 999.94
1017.33 1016.66 1015.99 1015.32 1014.68 1014.07 1013.50 1012.97 1012.49 1012.05 1011.65 1011.26 1010.87 1010.46 1010.00 1009.48 1008.88 1008.20 1007.46 1006.66 1005.86 1005.08 1004.36 1003.74 1003.24 1002.87 1002.61 1002.45 1002.36 1002.27 1002.16 1001.99 1001.75 1001.42 1001.04 1000.63 1000.25 999.96
1017.42 1016.68 1015.94 1015.21 1014.52 1013.88 1013.29 1012.77 1012.30 1011.88 1011.50 1011.13 1010.75 1010.34 1009.88 1009.34 1008.72 1008.03 1007.26 1006.46 1005.64 1004.86 1004.15 1003.54 1003.06 1002.70 1002.47 1002.34 1002.27 1002.22 1002.15 1002.02 1001.82 1001.55 1001.22 1000.86 1000.53 1000.26
1017.48 1016.70 1015.91 1015.14 1014.41 1013.75 1013.14 1012.61 1012.14 1011.73 1011.35 1010.98 1010.60 1010.19 1009.72 1009.18 1008.56 1007.87 1007.11 1006.31 1005.52 1004.75 1004.06 1003.47 1002.99 1002.65 1002.43 1002.31 1002.25 1002.22 1002.19 1002.11 1001.98 1001.78 1001.53 1001.26 1001.00 1000.79
1017.54 1016.74 1015.94 1015.16 1014.42 1013.74 1013.12 1012.58 1012.10 1011.67 1011.27 1010.89 1010.49 1010.07 1009.60 1009.05 1008.44 1007.77 1007.03 1006.27 1005.51 1004.78 1004.12 1003.54 1003.09 1002.74 1002.52 1002.39 1002.33 1002.31 1002.29 1002.26 1002.19 1002.07 1001.92 1001.75 1001.59 1001.47
1017.61 1016.85 1016.08 1015.32 1014.60 1013.93 1013.31 1012.75 1012.25 1011.78 1011.35 1010.93 1010.50 1010.05 1009.55 1009.01 1008.41 1007.77 1007.08 1006.36 1005.65 1004.97 1004.35 1003.80 1003.35 1003.00 1002.76 1002.61 1002.53 1002.49 1002.49 1002.48 1002.46 1002.42 1002.37 1002.31 1002.26 1002.24
1017.73 1017.05 1016.36 1015.67 1015.00 1014.36 1013.75 1013.18 1012.65 1012.14 1011.65 1011.17 1010.68 1010.18 1009.66 1009.11 1008.52 1007.90 1007.26 1006.61 1005.96 1005.34 1004.76 1004.25 1003.80 1003.45 1003.18 1002.98 1002.87 1002.81 1002.79 1002.79 1002.81 1002.83 1002.86 1002.90 1002.95 1003.02
1017.92 1017.37 1016.79 1016.21 1015.62 1015.03 1014.45 1013.88 1013.31 1012.75 1012.19 1011.64 1011.08 1010.52 1009.95 1009.37 1008.79 1008.20 1007.61 1007.02 1006.44 1005.88 1005.35 1004.87 1004.44 1004.07 1003.77 1003.54 1003.38 1003.28 1003.23 1003.23 1003.27 1003.33 1003.42 1003.53 1003.67 1003.82
1018.19 1017.79 1017.36 1016.89 1016.41 1015.89 1015.35 1014.78 1014.19 1013.58 1012.95 1012.31 1011.67 1011.04 1010.42 1009.82 1009.23 1008.66 1008.11 1007.58 1007.07 1006.57 1006.10 1005.66 1005.25 1004.88 1004.55 1004.29 1004.08 1003.94 1003.86 1003.84 1003.87 1003.96 1004.09 1004.25 1004.44 1004.64
Thickness
5644 5642 5641 5640 5638 5636 5633 5629 5625 5625 5628 5628 5626 5625 5621 5617 5613 5611 5611 5609 5607 5606 5606 5606 5608 5609 5611 5613 5615 5617 5619 5622 5624 5627 5630 5633 5635 5638
5635 5633 5632 5633 5631 5629 5626 5624 5621 5617 5617 5621 5618 5618 5612 5608 5604 5602 5601 5600 5599 5598 5598 5598 5598 5599 5601 5604 5606 5609 5611 5614 5616 5619 5623 5626 5629 5631
5630 5629 5626 5623 5623 5622 5620 5617 5614 5611 5609 5611 5610 5608 5602 5598 5596 5594 5593 5593 5593 5590 5589 5589 5589 5590 5592 5594 5597 5599 5602 5605 5608 5611 5614 5618 5621 5624
5626 5623 5620 5619 5616 5615 5613 5611 5608 5605 5602 5601 5600 5599 5595 5591 5589 5586 5587 5587 5585 5584 5582 5581 5580 5581 5582 5584 5586 5589 5593 5596 5599 5602 5606 5610 5613 5616
5620 5617 5615 5613 5610 5610 5606 5605 5603 5602 5598 5595 5594 5592 5589 5586 5583 5581 5581 5578 5578 5578 5575 5574 5572 5572 5574 5575 5577 5579 5583 5586 5590 5593 5596 5601 5605 5608
5616 5613 5611 5609 5606 5603 5602 5599 5597 5594 5592 5590 5588 5586 5583 5579 5575 5573 5572 5571 5571 5572 5569 5568 5566 5565 5566 5567 5570 5571 5574 5576 5579 5583 5587 5591 5595 5598
5612 5609 5607 5603 5598 5596 5595 5593 5591 5588 5586 5584 5582 5580 5575 5570 5567 5565 5563 5563 5563 5562 5562 5562 5562 5562 5561 5561 5561 5563 5565 5567 5570 5573 5577 5581 5585 5589
5608 5606 5603 5600 5595 5590 5587 5583 5580 5579 5578 5575 5575 5571 5566 5563 5560 5556 5554 5554 5554 5555 5553 5554 5555 5555 5556 5556 5555 5556 5556 5558 5561 5564 5568 5572 5575 5579
5604 5601 5599 5597 5591 5588 5584 5579 5576 5572 5568 5566 5566 5563 5560 5557 5552 5550 5548 5545 5545 5545 5544 5546 5549 5549 5550 5551 5549 5549 5549 5551 5553 5555 5559 5562 5566 5570
5600 5596 5593 5589 5586 5580 5579 5577 5574 5571 5566 5563 5560 5557 5554 5550 5545 5543 5541 5540 5540 5540 5539 5539 5542 5543 5545 5545 5543 5543 5543 5543 5545 5547 5550 5553 5557 5560
5597 5593 5588 5584 5576 5572 5572 5571 5569 5567 5563 5558 5554 5551 5547 5543 5539 5537 5537 5536 5537 5537 5537 5536 5537 5537 5538 5539 5539 5537 5536 5536 5538 5540 5542 5545 5548 5551
5594 5590 5582 5577 5570 5566 5566 5566 5564 5562 5560 5558 5554 5549 5546 5543 5536 5532 5532 5532 5532 5531 5531 5529 5530 5529 5531 5533 5533 5533 5532 5531 5532 5533 5535 5537 5540 5545
5592 5588 5582 5572 5566 5562 5559 5559 5557 5553 5555 5556 5554 5551 5547 5542 5537 5532 5528 5526 5525 5525 5525 5523 5523 5524 5524 5526 5528 5529 5529 5529 5529 5529 5530 5531 5533 5537
5587 5584 5578 5568 5563 5559 5557 5554 5551 5549 5553 5553 5550 5546 5542 5538 5533 5528 5524 5520 5518 5518 5517 5516 5516 5516 5517 5520 5522 5524 5524 5524 5525 5526 5527 5527 5528 5531
5583 5577 5571 5566 5562 5561 5557 5553 5550 5551 5551 5548 5544 5541 5537 5532 5528 5524 5521 5517 5515 5514 5513 5512 5511 5511 5512 5514 5515 5517 5518 5519 5520 5522 5523 5524 5527 5530
5582 5577 5571 5567 5563 5561 5558 5556 5554 5551 5546 5544 5541 5538 5534 5530 5526 5523 5520 5517 5515 5514 5511 5509 5508 5507 5508 5509 5511 5512 5513 5514 5516 5517 5518 5520 5522 5525
5580 5579 5578 5575 5571 5567 5563 5559 5554 5550 5546 5542 5539 5536 5532 5529 5525 5522 5519 5516 5514 5513 5511 5509 5507 5506 5505 5505 5507 5508 5509 5510 5511 5511 5512 5515 5518 5522
5575 5579 5577 5574 5570 5567 5563 5558 5554 5550 5545 5541 5537 5534 5531 5527 5525 5522 5519 5516 5514 5513 5511 5509 5508 5506 5505 5505 5501 5503 5505 5505 5507 5507 5509 5511 5514 5517
5578 5579 5576 5572 5568 5565 5561 5556 5552 5547 5542 5539 5536 5533 5529 5526 5523 5521 5519 5516 5514 5512 5511 5509 5507 5505 5504 5505 5504 5499 5501 5503 5504 5506 5507 5509 5511 5514
5583 5580 5576 5572 5567 5563 5558 5554 5550 5545 5541 5537 5534 5530 5527 5525 5522 5520 5517 5514 5512 5511 5509 5507 5505 5503 5501 5501 5501 5501 5497 5500 5501 5503 5505 5506 5508 5509
5586 5581 5577 5572 5567 5562 5557 5553 5548 5544 5539 5536 5532 5529 5526 5523 5521 5519 5517 5511 5509 5509 5507 5505 5502 5498 5498 5498 5499 5500 5499 5495 5496 5497 5500 5503 5507 5509
5585 5581 5576 5570 5565 5561 5556 5552 5548 5544 5539 5535 5532 5529 5526 5524 5521 5518 5516 5513 5511 5509 5507 5505 5501 5499 5499 5498 5498 5498 5498 5496 5495 5493 5494 5496 5501 5506
5584 5579 5574 5569 5564 5560 5556 5551 5547 5544 5540 5536 5532 5529 5527 5524 5522 5519 5515 5513 5510 5508 5506 5504 5503 5501 5500 5499 5498 5497 5496 5496 5496 5495 5495 5493 5493 5494